ROMMA est une association bénévole à but non lucratif. Votre soutien est indispensable : ADHERER à ROMMA ou FAIRE un DON

Trept - (38, Isère)

Plateau de Crémieu (265 m)   Longitude: 5° 19' 27" E   Latitude: 45° 41' 15"N Station partenaire n°94
 

Détail journalier du     <<     >>

Température Precipitation Humidité Pression Vent Dir Rafale Dir. rafale
Heure (°C) (mm) (%) (hPa) (km/h) (km/h)
01:00 17.308410261ONO3ONO
02:00 17.208610261O8SO
03:00 17.108510263OSO6ONO
04:00 16.308710262OSO6ONO
05:00 15.909010261NO5SO
06:00 15.409010261ONO6ONO
07:00 14.409010261E5NE
08:00 14.2093102702NNE
09:00 16.3089102703NNE
10:00 19.707510272SSE6SO
11:00 23.506210273S11OSO
12:00 25.905410263SE11OSO
13:00 26.805210264SO15OSO
14:00 28.404810255O13SSO
15:00 29.304510255O19NNO
16:00 29.804410243NNE11OSO
17:00 29.404510234SO13ONO
18:00 28.804610234SSO11OSO
19:00 27.804710232NNE8NE
20:00 25.705610231NNE5NNE
21:00 23.0065102405NNE
22:00 21.806910241NNE5NNE
23:00 20.407410241N3N
minuit 19.108010241N3N

Graphique du 14-09-2019

 

Serveur OMMA